Irving, TX

2:45 AM CST on February 08, 2016 (GMT -0600)
Dallas-Fort Worth International

Weather History for KDFW - April, 2012

Change the Weather History Date:

Thursday, April 19, 2012

  Actual Average Record
Temperature  
Mean Temperature 70 °F 66 °F  
Max Temperature 83 °F 77 °F 93 °F (1996)
Min Temperature 57 °F 56 °F 36 °F (1953)
Degree Days  
Heating Degree Days 0 2  
Month to date heating degree days 1 68  
Since 1 July heating degree days 1770 2261  
Cooling Degree Days 5 4  
Month to date cooling degree days 90 50  
Year to date cooling degree days 193 89  
Growing Degree Days 20 (Base 50)    
Moisture  
Dew Point 51 °F    
Average Humidity 54    
Maximum Humidity 72    
Minimum Humidity 36    
Precipitation  
Precipitation 0.00 in 0.11 in 3.67 in (1942)
Month to date precipitation 4.16 1.71  
Year to date precipitation 17.96 9.99  
Snow  
Snow 0.00 in 0.00 in 0.00 in ()
Month to date snowfall 0.0 0.0  
Since 1 July snowfall 0.3 1.2  
Snow Depth 0.00 in    
Sea Level Pressure  
Sea Level Pressure 29.85 in    
Wind  
Wind Speed 13 mph (SSE)    
Max Wind Speed 26 mph    
Max Gust Speed 33 mph    
Visibility 10 miles    
Events      
T = Trace of Precipitation, MM = Missing Value Source: NWS Daily Summary

Daily Weather History Graph

Daily Weather History Graph

Search for Another Location

Airport or City:

Trip Planner

Search our weather history database for the weather conditions in past years. The results will help you decide how hot, cold, wet, or windy it might be!

Date:

Astronomy

Apr. 19, 2012 Rise Set
Actual Time 6:53 AM CDT 8:01 PM CDT
Civil Twilight 6:27 AM CDT 8:27 PM CDT
Nautical Twilight 5:57 AM CDT 8:57 PM CDT
Astronomical Twilight 5:25 AM CDT 9:29 PM CDT
Moon 5:44 AM CDT (4/19) 6:52 PM CDT (4/19)
Length of Visible Light 13h 59m
Length of Day
13h 08m
Waning Crescent, 2% of the Moon is Illuminated
Apr 19
Waning Crescent
Apr 21
New
Apr 29
First Quarter
May 5
Full
May 12
Last Quarter

Hourly Weather History & Observations

Time (CDT) Temp. Heat Index Dew Point Humidity Pressure Visibility Wind Dir Wind Speed Gust Speed Precip Events Conditions
12:53 AM 64.9 °F - 50.0 °F 58% 29.95 in 10.0 mi SSE 13.8 mph - N/A   Clear
1:53 AM 64.0 °F - 48.0 °F 56% 29.94 in 10.0 mi South 10.4 mph - N/A   Clear
2:53 AM 63.0 °F - 46.9 °F 56% 29.93 in 10.0 mi SSE 9.2 mph - N/A   Clear
3:53 AM 62.1 °F - 46.9 °F 58% 29.92 in 10.0 mi South 8.1 mph - N/A   Clear
4:53 AM 62.1 °F - 48.0 °F 60% 29.92 in 10.0 mi South 8.1 mph - N/A   Clear
5:53 AM 57.9 °F - 48.9 °F 72% 29.92 in 10.0 mi SSE 5.8 mph - N/A   Clear
6:53 AM 57.0 °F - 48.0 °F 72% 29.92 in 10.0 mi SSE 5.8 mph - N/A   Clear
7:53 AM 60.1 °F - 51.1 °F 72% 29.93 in 10.0 mi SE 5.8 mph - N/A   Clear
8:53 AM 66.0 °F - 52.0 °F 60% 29.93 in 10.0 mi South 11.5 mph - N/A   Clear
9:53 AM 71.1 °F - 52.0 °F 51% 29.91 in 10.0 mi South 17.3 mph 25.3 mph N/A   Clear
10:53 AM 73.0 °F - 51.1 °F 46% 29.91 in 10.0 mi South 20.7 mph 27.6 mph N/A   Clear
11:53 AM 75.9 °F - 50.0 °F 40% 29.88 in 10.0 mi South 20.7 mph 31.1 mph N/A   Clear
12:53 PM 78.1 °F - 50.0 °F 37% 29.86 in 10.0 mi South 21.9 mph 29.9 mph N/A   Clear
1:53 PM 80.1 °F - 52.0 °F 38% 29.83 in 10.0 mi South 21.9 mph 27.6 mph N/A   Clear
2:53 PM 81.0 °F - 51.1 °F 35% 29.81 in 10.0 mi South 18.4 mph 25.3 mph N/A   Partly Cloudy
3:53 PM 81.0 °F - 52.0 °F 36% 29.78 in 10.0 mi South 17.3 mph 26.5 mph N/A   Partly Cloudy
4:53 PM 81.0 °F - 52.0 °F 36% 29.75 in 10.0 mi South 19.6 mph 26.5 mph N/A   Partly Cloudy
5:53 PM 80.1 °F 79.9 °F 53.1 °F 39% 29.73 in 10.0 mi South 19.6 mph 27.6 mph N/A   Partly Cloudy
6:53 PM 79.0 °F - 53.1 °F 40% 29.71 in 10.0 mi South 16.1 mph - N/A   Scattered Clouds
7:53 PM 75.0 °F - 54.0 °F 48% 29.72 in 10.0 mi South 11.5 mph - N/A   Scattered Clouds
8:53 PM 73.9 °F - 55.0 °F 52% 29.72 in 10.0 mi SSE 9.2 mph - N/A   Scattered Clouds
9:53 PM 73.4 °F - 55.4 °F 53% 29.74 in 10.0 mi SSE 12.7 mph - N/A   Mostly Cloudy
10:53 PM 73.4 °F - 55.4 °F 53% 29.79 in 10.0 mi Calm Calm - N/A   Overcast
11:53 PM 69.8 °F - 57.2 °F 64% 29.77 in 10.0 mi Calm Calm - N/A   Overcast